Weather History for Plattsburgh, NY

Change the Weather History Date:

Tuesday, February 18, 2014

  Actual Average Record
Temperature  
Mean Temperature 9 °F 22 °F  
Max Temperature 26 °F 32 °F 59 °F (1981)
Min Temperature -9 °F 12 °F -17 °F (1973)
Degree Days  
Heating Degree Days 56 43  
Month to date heating degree days 888 823  
Since 1 July heating degree days 5434 5199  
Moisture  
Dew Point 13 °F    
Average Humidity 74    
Maximum Humidity 92    
Minimum Humidity 56    
Precipitation  
Precipitation T in - 0.98 in (1952)
Month to date precipitation 0.22  
Year to date precipitation 0.86  
Sea Level Pressure  
Sea Level Pressure 30.05 in    
Wind  
Wind Speed 10 mph (SSE)    
Max Wind Speed 28 mph    
Max Gust Speed 35 mph    
Visibility 7 miles    
Events Snow    
T = Trace of Precipitation, MM = Missing Value Source: NWS Daily Summary

Daily Weather History Graph

Daily Weather History Graph

Search for Another Location

Airport:

Trip Planner

Search our weather history database for the weather conditions in past years. The results will help you decide how hot, cold, wet, or windy it might be!

Date:

Astronomy

Feb. 18, 2014 Rise Set
Actual Time 6:49 AM EST 5:26 PM EST
Civil Twilight 6:19 AM EST 5:56 PM EST
Nautical Twilight 5:45 AM EST 6:30 PM EST
Astronomical Twilight 5:12 AM EST 7:04 PM EST
Moon 9:28 PM EST (2/18) 8:10 AM EST (2/18)
Length of Visible Light 11h 36m
Length of Day
10h 37m
Waning Gibbous, 87% of the Moon is Illuminated
Feb 18
Waning Gibbous
Feb 22
Last Quarter
Mar 1
New
Mar 8
First Quarter
Mar 16
Full

Hourly Weather History & Observations

Time (EST) Temp. Windchill Dew Point Humidity Pressure Visibility Wind Dir Wind Speed Gust Speed Precip Events Conditions
12:53 AM -8.0 °F - -13.0 °F 79% 30.27 in 10.0 mi Calm Calm - N/A   Clear
1:53 AM -8.0 °F -16.9 °F -13.0 °F 79% 30.25 in 10.0 mi SW 3.5 mph - N/A   Clear
2:53 AM -6.0 °F -14.7 °F -11.0 °F 79% 30.20 in 10.0 mi WSW 3.5 mph - N/A   Clear
3:53 AM 1.0 °F - -6.0 °F 72% 30.18 in 10.0 mi Calm Calm - N/A   Clear
4:53 AM 10.0 °F -7.1 °F -2.9 °F 56% 30.15 in 10.0 mi SE 16.1 mph - N/A   Clear
5:53 AM 7.0 °F - -2.9 °F 64% 30.14 in 10.0 mi Calm Calm - N/A   Overcast
6:53 AM 12.9 °F -4.4 °F 1.9 °F 62% 30.10 in 10.0 mi SSE 18.4 mph - N/A   Overcast
7:53 AM 17.1 °F 1.0 °F 8.1 °F 68% 30.09 in 10.0 mi South 18.4 mph 25.3 mph N/A   Overcast
8:00 AM 18.0 °F 3.1 °F 9.0 °F 68% 30.07 in 2.0 mi South 16.1 mph 25.3 mph 0.00 in Snow Light Snow
8:04 AM 19.0 °F 3.2 °F 10.9 °F 71% 30.06 in 0.8 mi South 19.6 mph 29.9 mph 0.00 in Snow Light Snow
8:12 AM 19.0 °F 2.7 °F 12.9 °F 77% 30.06 in 0.5 mi SSE 20.7 mph 29.9 mph 0.00 in Snow Snow
8:17 AM 19.0 °F 4.0 °F 12.9 °F 77% 30.06 in 1.0 mi SSE 17.3 mph 27.6 mph 0.00 in Snow Light Snow
8:21 AM 19.0 °F 2.7 °F 12.9 °F 77% 30.06 in 3.0 mi South 20.7 mph 28.8 mph 0.00 in Snow Light Snow
8:28 AM 19.9 °F 5.7 °F 10.9 °F 68% 30.06 in 9.0 mi SSE 16.1 mph 28.8 mph 0.00 in   Overcast
8:53 AM 19.9 °F 5.2 °F 7.0 °F 57% 30.07 in 10.0 mi SSE 17.3 mph 25.3 mph 0.00 in   Overcast
9:53 AM 19.9 °F 5.7 °F 12.0 °F 71% 30.06 in 10.0 mi SE 16.1 mph 25.3 mph N/A   Mostly Cloudy
10:53 AM 23.0 °F 9.2 °F 14.0 °F 68% 30.03 in 10.0 mi SE 17.3 mph 21.9 mph N/A   Mostly Cloudy
11:53 AM 25.0 °F 10.6 °F 16.0 °F 69% 29.99 in 10.0 mi SE 20.7 mph - N/A   Partly Cloudy
12:53 PM 26.1 °F 13.6 °F 18.0 °F 71% 29.98 in 10.0 mi SE 16.1 mph - N/A   Overcast
1:53 PM 25.0 °F 13.1 °F 21.0 °F 85% 29.98 in 10.0 mi SE 13.8 mph - 0.00 in   Overcast
2:53 PM 26.1 °F 12.7 °F 21.0 °F 81% 29.97 in 10.0 mi SSE 18.4 mph - N/A   Overcast
3:53 PM 25.0 °F 12.6 °F 21.9 °F 88% 29.98 in 5.0 mi SSE 15.0 mph - 0.00 in Snow Light Snow
4:07 PM 25.0 °F 13.1 °F 23.0 °F 92% 29.96 in 2.0 mi SSE 13.8 mph - 0.00 in Snow Light Snow
4:15 PM 25.0 °F 13.6 °F 23.0 °F 92% 29.96 in 2.5 mi SSE 12.7 mph - 0.00 in Snow Light Snow
4:29 PM 25.0 °F 13.6 °F 23.0 °F 92% 29.97 in 1.0 mi SSE 12.7 mph - 0.00 in Snow Light Snow
4:46 PM 25.0 °F 13.6 °F 23.0 °F 92% 29.97 in 3.0 mi SSE 12.7 mph - 0.00 in Snow Light Snow
4:53 PM 25.0 °F 13.6 °F 23.0 °F 92% 29.99 in 4.0 mi SSE 12.7 mph - 0.00 in Snow Light Snow
5:35 PM 25.0 °F 14.8 °F 23.0 °F 92% 29.98 in 2.0 mi SSE 10.4 mph - 0.00 in Snow Light Snow
5:53 PM 25.0 °F 14.2 °F 23.0 °F 92% 30.00 in 2.5 mi SE 11.5 mph - 0.00 in Snow Light Snow
6:04 PM 25.0 °F 14.8 °F 23.0 °F 92% 29.98 in 3.0 mi SSE 10.4 mph - 0.00 in Snow Light Snow
6:53 PM 25.0 °F 17.1 °F 21.9 °F 88% 30.01 in 10.0 mi SSE 6.9 mph - 0.00 in   Overcast
7:53 PM 24.1 °F - 21.9 °F 91% 30.01 in 7.0 mi Calm Calm - 0.00 in Snow Light Snow
8:53 PM 23.0 °F - 21.0 °F 92% 30.03 in 10.0 mi Calm Calm - 0.00 in   Scattered Clouds
9:53 PM 21.9 °F - 19.9 °F 92% 30.03 in 10.0 mi Calm Calm - N/A   Overcast
10:53 PM 19.9 °F 8.6 °F 18.0 °F 92% 30.01 in 10.0 mi SSE 10.4 mph - N/A   Clear
11:53 PM 19.0 °F 13.9 °F 17.1 °F 92% 30.02 in 10.0 mi South 3.5 mph - N/A   Overcast